Regional Weather Roundup
Issued by NWS

Home | Current Version | Previous Version | Text Only | Print | Product List | Glossary Off
Versions: 1 2 3 4 5 6 7 8 9 10 11 12 13 14 15 16 17 18 19 20 21 22 23 24 25 26 27 28 29 30 31 32 33 34 35 36 37 38 39 40 41 42 43 44 45 46 47 48 49 50

000
ASUS43 KDMX 210906
RWRIA

WEATHER ROUNDUP FOR IOWA
NATIONAL WEATHER SERVICE DES MOINES IA
400 AM CDT SAT OCT 21 2017

NOTE: "FAIR" INDICATES FEW OR NO CLOUDS BELOW 12,000 FEET WITH NO
SIGNIFICANT WEATHER AND/OR OBSTRUCTIONS TO VISIBILITY.

* - THESE STATIONS ARE NOT NWS STATIONS...THUS NOT UNDER NWS
QUALITY CONTROL.  THEY ALSO DO NOT REPORT WEATHER SUCH
AS PRECIPITATION OR FOG.

IAZ001>003-012>014-020>022-031>034-043>046-211000-
   NORTHWEST IOWA

CITY           SKY/WX    TMP DP  RH WIND       PRES   REMARKS
CHEROKEE *     CLOUDY    64  59  83 S18G26    29.62F
DENISON *      CLOUDY    63  59  88 S24G39    29.65F
LE MARS *      CLOUDY    66  59  77 S18G29    29.56F
ORANGE CITY *  CLOUDY    66  61  82 S17G26    29.57F
SHELDON *      CLOUDY    64  57  77 S16G24    29.57F
SIOUX CITY     CLOUDY    66  59  78 S16G25    29.56F
SPENCER        CLOUDY    64  56  75 S24G32    29.62F
STORM LAKE *   CLOUDY    61  59  94 S24       29.65S
$$

IAZ055>058-069>071-079>083-090>094-211000-
   SOUTHWEST IOWA

CITY           SKY/WX    TMP DP  RH WIND       PRES   REMARKS
ATLANTIC *     LGT RAIN  63  61  94 S15G23    29.71S
AUDUBON *      RAIN      61  57  88 S10       29.72F
CLARINDA *       N/A     66  61  82 S17G25    29.74F
COUNCIL BLFS * CLOUDY    64  64 100 S21G28    29.64F
CRESTON *      CLOUDY    61  57  88 S20G29    29.78F
HARLAN  *      LGT RAIN  63  63 100 S21G32    29.71R
LAMONI         LGT RAIN  63  57  81 S14G22    29.81F
RED OAK *      CLOUDY    64  61  88 S14G25    29.70F
SHENANDOAH *   CLOUDY    66  59  77 S21       29.70F
$$

IAZ047>049-059>061-072>074-084-211000-
   CENTRAL IOWA

CITY           SKY/WX    TMP DP  RH WIND       PRES   REMARKS
AMES           MOCLDY    62  56  80 S15       29.77F
ANKENY *       MOCLDY    64  55  72 S18G24    29.78F
BOONE *        CLOUDY    63  55  77 S17       29.74F
CHARITON *     PTCLDY    63  55  77 S18G26    29.81F
DES MOINES     LGT RAIN  65  56  72 S20G26    29.77F
GRINNELL*      MOCLDY    61  54  77 SE16      29.84F
KNOXVILLE *    PTCLDY    64  55  72 S16G22    29.80S
MARSHALLTOWN   PTCLDY    61  53  75 SE17      29.80F
NEWTON *       MOCLDY    63  55  77 S16       29.81F
PELLA *        CLOUDY    63  55  73 S10G17    29.83F
PERRY *        MOCLDY    64  55  72 S14G23    29.74S
$$

IAZ004>006-015-016-023>025-035-036-211000-
   NORTH CENTRAL IOWA

CITY           SKY/WX    TMP DP  RH WIND       PRES   REMARKS
ALGONA *       CLOUDY    63  55  77 S15G25    29.70R
CLARION *      CLOUDY    61  55  82 S20       29.73S
ESTHERVILLE    MOCLDY    60  55  83 S16G24    29.65F
FORT DODGE *   MOCLDY    63  55  75 S16G28    29.71F
MASON CITY     CLOUDY    59  51  75 S15       29.76F
FOREST CITY *    N/A     61  54  77 S16G23    29.73F
WEBSTER CITY * PTCLDY    61  54  77 S16G23    29.71F
IOWA FALLS *     N/A     59  53  79 SE15G23   29.78F
$$

IAZ007>011-017>019-026>030-037>042-050>054-066-211000-
   NORTHEAST IOWA

CITY           SKY/WX    TMP DP  RH WIND       PRES   REMARKS
CEDAR RAPIDS   PTCLDY    62  51  67 S14       29.88F
CHARLES CITY * PTCLDY    61  52  72 S15G25    29.80F
CLINTON *      MOCLDY    62  52  69 S12       29.96F
DECORAH *      CLOUDY    63  50  63 S13G21    29.83F
DUBUQUE        PTCLDY    60  50  69 S14       29.93F
MONTICELLO *   MOCLDY    61  50  67 SE10      29.90F
OELWEIN *      MOCLDY    61  54  77 S18G28    29.85F
WATERLOO       MOCLDY    60  51  72 S17G23    29.81F
$$

IAZ064-065-067-068-078-211000-
   EAST CENTRAL IOWA

CITY           SKY/WX    TMP DP  RH WIND       PRES   REMARKS
DAVENPORT      MOCLDY    64  51  62 S15G23    29.97F
IOWA CITY      PTCLDY    63  52  67 SE12      29.91F
MUSCATINE *    MOCLDY    63  52  67 S12       29.93F
QUAD CITIES    MOCLDY    65  50  58 S15G22    29.95F
$$

IAZ062-063-075>077-085>089-095>099-211000-
   SOUTHEAST IOWA

CITY           SKY/WX    TMP DP  RH WIND       PRES   REMARKS
BURLINGTON     MOCLDY    63  53  70 S15       29.94F
FAIRFIELD *    CLOUDY    63  52  67 S17G26    29.89F
FORT MADISON * MOCLDY    63  54  72 S13       29.95F
KEOKUK *       CLOUDY    63  52  67 SE10      29.94F
OSKALOOSA *      N/A     61  54  78 S17       29.85F
OTTUMWA        MOCLDY    63  54  72 S17G25    29.86F
WASHINGTON *   PTCLDY    64  54  68 S17G25    29.91F
$$

ABBREVIATIONS USED IN REMARKS
   TC - TEMPERATURES IN CELSIUS
  WCI - WIND CHILL INDEX
   HX - HEAT INDEX
  VSB - VISIBILITY
$$




USA.gov is the U.S. government's official web portal to all federal, state and local government web resources and services.